Showing default

ANALYST OBJECT, 84434

Orbit data source: Space-Track

You're viewing an Uncataloged Satellite

Recently launched and/or uncataloged satellites may have evolving metadata. Metadata may include but not limited to: Owner, Maufacturer, Bus, Motor, and Mission.

Loading next visibility...
Identifier
84434
Orbit
HEO
Country
Unknown
Related business
None
Manufacturer
Unknown
Mission
Spacecraft
Bus & Motor
Unknown
Mass
Unknown
Launch date (UTC)
Unknown
Launch vehicle
Unknown
Launch site
Unknown
Object type
Unknown
Shape & HBR
Unknown shape, 0.2 m
Radar Cross Section
RCS unknown

Expand to show TLE details & history
Last TLE update: 1 year ago

TLE from 1 year ago
0 ANALYST OBJECT
1 84434U          25081.17225239 +.00029327 +00000+0 +87021-1 0  9991
2 84434  20.6264  57.2414 7061404 235.4768  37.3580  2.46378436 79998
Epoch: 2025-03-22T04:08Z
TLE epoch observation values (Epoch: 2025-03-22T04:08:02.606Z)
Latitude
-0°
Longitude
175.27293°
Altitude
12,984.168 km
Speed
4.895 km/s
True Right ascension
03h 48m 49s
True Declination
0° 00' 00"
Sunlit
Object was in daylight at epoch
Visualization orbit readout
Latitude
Unknown
Longitude
Unknown
Altitude
Unknown
Speed
Unknown
Apparent Right ascension
Unknown
Apparent Declination
Unknown
Sunlit
N/A
Visualization observer readout
Local Sidereal Time
01:57:21
Azimuth
Unknown
Elevation
Unknown
Doppler factor
Unknown
Orbital elements
Apogee altitude
33,137.003 km
Perigee altitude
427.811 km
Semi-major axis
23,160.544 km
Eccentricity
0.70614
Inclination
20.6264°
RAAN
57.2414°
Arg. of periapsis
235.4768°
True anomaly
124.67286°
Mean anomaly
37.358°
Eccentric anomaly
76.73785°
Mean motion
0.61577 °/min
Orbital period
584.63 mins
BSTAR
0.087021
Loading maneuver chart data...
Computing Atmospheric mass density...
Loading historical data...
Loading historical data...
Loading historical data...
Loading historical data...
Loading historical data...
Loading historical data...
Loading historical data...
Other satellites on launch

Documentation

Showing up to 5 results
|